sat.trackr.live / text

‹ back to catalog

ISAT

NORAD 43879 · 2018-111D

PAYLOAD ACTIVE UNKNOWN

§ Identity

Operator
Country
GER
Launch date
2018-12-27
Launch site
VOSTO
Launch vehicle
Mass (kg)
RCS (m²)

External: N2YO · Heavens-Above · Gunter

§ Orbital elements

Epoch: 2026-05-24T12:57:51.640992Z

Period
92.25 min
Inclination
97.5894°
Eccentricity
0.0006435
Mean motion
15.60894925 rev/d
Perigee alt
380.7 km
Apogee alt
389.4 km
Semi-major
6,763.2 km
B*
8.6226e-4
RAAN
78.0209°
Arg perigee
60.3502°
Mean anomaly
299.8394°
Rev number
40,747

§ Raw data

ISAT1 43879U 18111D   26144.54018103  .00072535  00000+0  86226-3 0  99902 43879  97.5894  78.0209 0006435  60.3502 299.8394 15.60894925407470

JSON: /api/v1/satellites/43879 · /tle

For live sub-satellite position, see the globe view (requires WebGL).

§ Visibility from observer

Set your observer location to see the next 7 days of passes ≥ 10°. The values pass through the URL so the page stays shareable.

No JS? Fill the form by hand. The geolocation button needs JavaScript.

§ Radio — SatNOGS DB

ModeDescriptionDownlinkUplink
GMSK GMSK4k8 Mobitex TLM 435.700 MHz
DSTAR MODE U/U DSTAR VOICE 435.525 MHz 437.325 MHz

2 transmitters · refreshed weekly from db.satnogs.org